Regional Weather Roundup
Issued by NWS

Home | Current Version | Previous Version | Text Only | Print | Product List | Glossary On
Versions: 1 2 3 4 5 6 7 8 9 10 11 12 13 14 15 16 17 18 19 20 21 22 23 24 25 26 27 28 29 30 31 32 33 34 35 36 37 38 39 40 41 42 43 44 45 46 47 48 49 50
000
ASUS45 KSLC 311410
RWRUT

UTAH REGIONAL WEATHER ROUNDUP
NATIONAL WEATHER SERVICE SALT LAKE CITY UT
800 AM MDT WED AUG 31 2016

UTZ001>011-023>025-311500-

NORTHERN UTAH

CITY           SKY/WX    TMP DP  RH WIND       PRES   REMARKS
BRIGHAM CITY     N/A     58  41  53 CALM      30.08S
HILL AFB       SUNNY     68  31  24 E18       30.09S
LOGAN          SUNNY     55  45  68 CALM      30.10R HAZE
OGDEN          SUNNY     68  32  26 S9        30.07R
PROVO AIRPORT  MOSUNNY  N/A N/A N/A VRB5      30.12R
SALT LAKE CITY MOSUNNY   77  36  22 SE13      30.06R
VERNAL         SUNNY     57  39  51 CALM      30.23R
WENDOVER       PTCLDY    68  30  24 E6        30.05R
HEBER CITY     SUNNY     48  37  66 CALM      30.21S
WEST JORDAN    SUNNY     71  40  32 S12       30.10R

$$

UTZ012>022-026-027-311500-

SOUTHERN/CENTRAL UTAH

CITY           SKY/WX    TMP DP  RH WIND       PRES   REMARKS
BLANDING       SUNNY     62  47  57 CALM      30.37S
BRYCE CANYON   MOSUNNY   47  37  68 W7        30.39R
CEDAR CITY     SUNNY     72  32  23 S5        30.19R
DELTA          MOSUNNY   63  34  34 MISG      30.13R
MILFORD        SUNNY     60  34  37 SW9       30.15R
MOAB/CYNLANDS  SUNNY     68  38  33 CALM      30.16R
PRICE          SUNNY     61  32  33 W3        30.25R
ST GEORGE      SUNNY     73  41  31 CALM      30.04R

$$

REGIONAL REPORTS     COLORADO/ARIZONA

CITY           SKY/WX    TMP DP  RH WIND       PRES   REMARKS
CRAIG, CO      SUNNY     54  40  59 CALM      30.30S
GRAND JUNCTION SUNNY     65  44  46 SE15      30.21R
RIFLE          SUNNY     58  46  64 SE5       30.28S
MONTROSE       SUNNY     59  45  59 SE6       30.31R
CORTEZ         SUNNY     60  50  69 CALM      30.31R
PAGE, AZ       SUNNY     70  41  34 CALM      30.14R
GRAND CANYON   SUNNY     52  45  77 CALM      30.30R
KINGMAN        MOCLDY    77  46  33 SE12      30.03R
FLAGSTAFF      SUNNY     51  45  79 CALM      30.34R

$$

REGIONAL REPORTS    NEVADA/IDAHO/WYOMING

CITY           SKY/WX    TMP DP  RH WIND       PRES   REMARKS
LAS VEGAS, NV  PTCLDY    83  38  20 CALM      29.89R
ELY            CLEAR     53  29  39 S9        30.21R
ELKO           CLEAR     52  32  46 CALM      30.08R
POCATELLO, ID  SUNNY     55  37  50 NE3       30.05S
BURLEY         MOSUNNY   54  44  69 CALM      30.00S
EVANSTON, WY   CLOUDY    58  26  29 E9        30.31R
ROCK SPRINGS   CLOUDY    57  36  45 NE3       30.31S

$$



USA.gov is the U.S. government's official web portal to all federal, state and local government web resources and services.